Time,TemperatureF,DewpointF,PressureIn,WindDirection,WindDirectionDegrees,WindSpeedMPH,WindSpeedGustMPH,Humidity,HourlyPrecipIn,Conditions,Clouds,dailyrainin,SolarRadiationWatts/m^2,SoftwareType,DateUTC
2018-02-20 00:05:00,54.9,50.3,31.58,North,0,11.6,17.8,84,0.01,,,0.00,0.625,Onset +HOBO +Station,2018-02-20 05:05:00,
2018-02-20 00:15:00,54.8,50.2,31.58,North,0,9.5,15.4,84,0.00,,,0.00,0.625,Onset +HOBO +Station,2018-02-20 05:15:00,
2018-02-20 00:25:00,54.9,50.1,31.58,North,0,10.8,18.3,83,0.00,,,0.00,0.625,Onset +HOBO +Station,2018-02-20 05:25:00,
2018-02-20 00:35:00,54.6,49.9,31.58,North,0,10.0,14.5,83,0.00,,,0.00,0.625,Onset +HOBO +Station,2018-02-20 05:35:00,
2018-02-20 00:45:00,55.3,50.3,31.58,North,0,11.2,15.8,83,0.00,,,0.00,0.625,Onset +HOBO +Station,2018-02-20 05:45:00,
2018-02-20 00:55:00,55.6,50.4,31.58,North,0,9.1,16.6,82,0.00,,,0.00,0.625,Onset +HOBO +Station,2018-02-20 05:55:00,
2018-02-20 01:05:00,56.0,50.7,31.58,North,0,9.5,20.3,82,0.00,,,0.00,0.625,Onset +HOBO +Station,2018-02-20 06:05:00,
2018-02-20 01:15:00,56.1,50.7,31.58,North,0,9.5,16.2,81,0.00,,,0.00,0.625,Onset +HOBO +Station,2018-02-20 06:15:00,
2018-02-20 01:25:00,55.8,50.3,31.58,North,0,7.5,15.4,81,0.00,,,0.00,0.625,Onset +HOBO +Station,2018-02-20 06:25:00,
2018-02-20 01:35:00,55.6,50.4,31.58,North,0,8.3,14.9,82,0.00,,,0.00,0.625,Onset +HOBO +Station,2018-02-20 06:35:00,
2018-02-20 01:45:00,55.2,50.2,31.58,North,0,7.9,14.9,83,0.00,,,0.00,0.625,Onset +HOBO +Station,2018-02-20 06:45:00,
2018-02-20 01:55:00,55.3,50.6,31.58,North,0,5.8,14.1,84,0.00,,,0.00,0.625,Onset +HOBO +Station,2018-02-20 06:55:00,
2018-02-20 02:05:00,55.6,51.0,31.58,North,0,0.4,8.3,84,0.01,,,0.01,0.625,Onset +HOBO +Station,2018-02-20 07:05:00,
2018-02-20 02:15:00,55.9,51.2,31.58,North,0,0.0,0.0,84,0.01,,,0.01,0.625,Onset +HOBO +Station,2018-02-20 07:15:00,
2018-02-20 02:25:00,56.5,51.4,31.58,North,0,4.6,14.1,82,0.01,,,0.01,0.625,Onset +HOBO +Station,2018-02-20 07:25:00,
2018-02-20 02:35:00,56.6,51.4,31.58,North,0,5.4,10.0,82,0.01,,,0.01,0.625,Onset +HOBO +Station,2018-02-20 07:35:00,
2018-02-20 02:45:00,57.0,51.5,31.58,North,0,9.1,15.4,81,0.01,,,0.01,0.625,Onset +HOBO +Station,2018-02-20 07:45:00,
2018-02-20 02:55:00,57.0,51.6,31.58,North,0,9.5,15.8,81,0.01,,,0.01,0.625,Onset +HOBO +Station,2018-02-20 07:55:00,
2018-02-20 03:05:00,57.2,51.6,31.58,North,0,10.0,14.1,81,0.00,,,0.01,0.625,Onset +HOBO +Station,2018-02-20 08:05:00,
2018-02-20 03:15:00,57.0,51.3,31.58,North,0,6.2,11.6,81,0.00,,,0.01,0.625,Onset +HOBO +Station,2018-02-20 08:15:00,
2018-02-20 03:25:00,56.6,51.1,31.58,North,0,0.0,0.0,81,0.00,,,0.01,0.625,Onset +HOBO +Station,2018-02-20 08:25:00,
2018-02-20 03:35:00,56.3,50.8,31.58,North,0,0.0,0.0,81,0.00,,,0.01,0.625,Onset +HOBO +Station,2018-02-20 08:35:00,
2018-02-20 03:45:00,55.4,50.5,31.58,North,0,0.0,0.0,83,0.00,,,0.01,0.625,Onset +HOBO +Station,2018-02-20 08:45:00,
2018-02-20 03:55:00,57.2,51.7,31.58,North,0,9.1,14.9,81,0.00,,,0.01,0.625,Onset +HOBO +Station,2018-02-20 08:55:00,
2018-02-20 04:05:00,57.6,51.6,31.58,North,0,10.0,16.2,80,0.00,,,0.01,0.625,Onset +HOBO +Station,2018-02-20 09:05:00,
2018-02-20 04:15:00,57.7,51.6,31.58,North,0,10.0,15.4,79,0.00,,,0.01,0.625,Onset +HOBO +Station,2018-02-20 09:15:00,
2018-02-20 04:25:00,57.9,51.5,31.58,North,0,10.8,17.0,79,0.00,,,0.01,0.625,Onset +HOBO +Station,2018-02-20 09:25:00,
2018-02-20 04:35:00,58.0,51.6,31.58,North,0,12.0,18.7,79,0.00,,,0.01,0.625,Onset +HOBO +Station,2018-02-20 09:35:00,
2018-02-20 04:45:00,58.2,51.6,31.58,North,0,10.8,17.4,78,0.00,,,0.01,0.625,Onset +HOBO +Station,2018-02-20 09:45:00,
2018-02-20 04:55:00,57.9,51.3,31.58,North,0,11.2,19.9,78,0.00,,,0.01,0.625,Onset +HOBO +Station,2018-02-20 09:55:00,
2018-02-20 05:05:00,58.0,51.5,31.58,North,0,10.8,16.2,78,0.00,,,0.01,0.625,Onset +HOBO +Station,2018-02-20 10:05:00,
2018-02-20 05:15:00,58.1,51.6,31.58,North,0,10.0,15.8,78,0.00,,,0.01,0.625,Onset +HOBO +Station,2018-02-20 10:15:00,
2018-02-20 05:25:00,58.1,51.6,31.58,North,0,5.8,15.4,78,0.00,,,0.01,0.625,Onset +HOBO +Station,2018-02-20 10:25:00,
2018-02-20 05:35:00,58.3,51.7,31.58,North,0,9.5,14.9,78,0.00,,,0.01,0.625,Onset +HOBO +Station,2018-02-20 10:35:00,
2018-02-20 05:45:00,58.5,51.8,31.58,North,0,10.0,14.9,78,0.00,,,0.01,0.625,Onset +HOBO +Station,2018-02-20 10:45:00,
2018-02-20 05:55:00,58.6,51.9,31.58,North,0,9.1,12.9,78,0.00,,,0.01,0.625,Onset +HOBO +Station,2018-02-20 10:55:00,
2018-02-20 06:05:00,59.0,52.2,31.58,North,0,10.0,13.3,77,0.00,,,0.01,0.625,Onset +HOBO +Station,2018-02-20 11:05:00,
2018-02-20 06:15:00,59.5,52.3,31.58,North,0,11.2,18.7,77,0.00,,,0.01,0.625,Onset +HOBO +Station,2018-02-20 11:15:00,
2018-02-20 06:25:00,59.7,52.4,31.58,North,0,10.8,16.2,76,0.00,,,0.01,0.625,Onset +HOBO +Station,2018-02-20 11:25:00,
2018-02-20 06:35:00,60.0,52.5,31.58,North,0,12.5,18.7,76,0.00,,,0.01,0.625,Onset +HOBO +Station,2018-02-20 11:35:00,
2018-02-20 06:45:00,60.1,52.5,31.58,North,0,11.6,16.2,75,0.00,,,0.01,0.625,Onset +HOBO +Station,2018-02-20 11:45:00,
2018-02-20 06:55:00,60.3,52.6,31.58,North,0,10.8,18.3,75,0.00,,,0.01,3.125,Onset +HOBO +Station,2018-02-20 11:55:00,
2018-02-20 07:05:00,60.5,52.7,31.58,North,0,12.0,17.4,75,0.00,,,0.01,3.125,Onset +HOBO +Station,2018-02-20 12:05:00,
2018-02-20 07:15:00,60.6,52.8,31.58,North,0,12.5,19.5,75,0.00,,,0.01,8.125,Onset +HOBO +Station,2018-02-20 12:15:00,
2018-02-20 07:25:00,60.5,52.6,31.58,North,0,10.8,16.2,75,0.00,,,0.01,10.625,Onset +HOBO +Station,2018-02-20 12:25:00,
2018-02-20 07:35:00,60.6,52.8,31.58,North,0,11.6,20.3,75,0.00,,,0.01,14.375,Onset +HOBO +Station,2018-02-20 12:35:00,
2018-02-20 07:45:00,60.6,52.7,31.58,North,0,10.8,16.6,75,0.00,,,0.01,31.875,Onset +HOBO +Station,2018-02-20 12:45:00,
2018-02-20 07:55:00,60.9,53.1,31.58,North,0,10.8,19.1,75,0.00,,,0.01,35.625,Onset +HOBO +Station,2018-02-20 12:55:00,
2018-02-20 08:05:00,60.9,53.0,31.58,North,0,11.2,20.3,74,0.00,,,0.01,16.875,Onset +HOBO +Station,2018-02-20 13:05:00,
2018-02-20 08:15:00,61.2,53.2,31.58,North,0,13.3,18.7,74,0.00,,,0.01,21.875,Onset +HOBO +Station,2018-02-20 13:15:00,
2018-02-20 08:25:00,61.0,53.1,31.58,North,0,10.8,17.4,75,0.00,,,0.01,24.375,Onset +HOBO +Station,2018-02-20 13:25:00,
2018-02-20 08:35:00,61.1,53.3,31.58,North,0,10.8,17.4,75,0.00,,,0.01,28.125,Onset +HOBO +Station,2018-02-20 13:35:00,
2018-02-20 08:45:00,61.5,53.5,31.58,North,0,11.2,19.5,74,0.00,,,0.01,25.625,Onset +HOBO +Station,2018-02-20 13:45:00,
2018-02-20 08:55:00,61.5,53.5,31.58,North,0,11.2,16.6,74,0.00,,,0.01,39.375,Onset +HOBO +Station,2018-02-20 13:55:00,
2018-02-20 09:05:00,61.5,53.5,31.58,North,1,10.8,17.0,74,0.00,,,0.01,55.625,Onset +HOBO +Station,2018-02-20 14:05:00,
2018-02-20 09:15:00,61.9,53.8,31.58,North,0,11.6,19.5,74,0.00,,,0.01,48.125,Onset +HOBO +Station,2018-02-20 14:15:00,
2018-02-20 09:25:00,62.2,53.9,31.58,North,0,11.2,19.5,74,0.00,,,0.01,58.125,Onset +HOBO +Station,2018-02-20 14:25:00,
2018-02-20 09:35:00,62.1,53.9,31.58,North,0,10.0,17.4,74,0.00,,,0.01,46.875,Onset +HOBO +Station,2018-02-20 14:35:00,
2018-02-20 09:45:00,62.0,53.9,31.58,North,0,4.2,11.2,74,0.00,,,0.01,44.375,Onset +HOBO +Station,2018-02-20 14:45:00,
2018-02-20 09:55:00,62.0,54.1,31.58,North,0,4.6,11.2,75,0.00,,,0.01,76.875,Onset +HOBO +Station,2018-02-20 14:55:00,
2018-02-20 10:05:00,62.5,54.5,31.58,North,0,7.9,15.4,74,0.00,,,0.01,93.125,Onset +HOBO +Station,2018-02-20 15:05:00,
2018-02-20 10:15:00,63.3,55.0,31.58,North,0,9.1,15.8,74,0.00,,,0.01,81.875,Onset +HOBO +Station,2018-02-20 15:15:00,
2018-02-20 10:25:00,63.7,55.2,31.58,North,0,9.1,12.9,73,0.00,,,0.01,94.375,Onset +HOBO +Station,2018-02-20 15:25:00,
2018-02-20 10:35:00,64.1,55.4,31.58,North,0,8.3,14.1,73,0.00,,,0.01,80.625,Onset +HOBO +Station,2018-02-20 15:35:00,
2018-02-20 10:45:00,64.3,55.5,31.58,North,0,8.3,12.0,72,0.00,,,0.01,75.625,Onset +HOBO +Station,2018-02-20 15:45:00,